WMT376 LIMF-LICC

Flight info

Callsign WMT376
Flight time 1h 39m
Altitude 37000
Route LAGEN DCT ANAKI DCT UNITA DCT BAKRO DCT VALMA DCT PELEN DCT UXUTA
Aircraft A320/M-SDE1E2E3FGIJ1J4RWXY/LB1

Departure

Time 2026-05-05 07:21
Airport Turin Airport (LIMF)

Arrival

Time 2026-05-05 09:01
Airport Catania-Fontanarossa Airport (LICC)
Time Latitude Longitude Altitude Speed Heading
2026-05-05 06:53 45.19271 7.64519 962 ft 0 kts 257°
2026-05-05 07:14 45.19272 7.64522 962 ft 3 kts 257°
2026-05-05 07:14 45.19278 7.64558 959 ft 4 kts 256°
2026-05-05 07:14 45.19285 7.64595 961 ft 4 kts 253°
2026-05-05 07:14 45.19293 7.64631 964 ft 4 kts 246°
2026-05-05 07:15 45.19306 7.64663 961 ft 4 kts 219°
2026-05-05 07:15 45.19319 7.64673 962 ft 0 kts 183°
2026-05-05 07:17 45.19318 7.64673 962 ft 1 kts 183°
2026-05-05 07:18 45.19299 7.64672 963 ft 5 kts 183°
2026-05-05 07:18 45.19250 7.64668 961 ft 10 kts 183°
2026-05-05 07:18 45.19158 7.64663 959 ft 16 kts 182°
2026-05-05 07:18 45.19033 7.64656 954 ft 20 kts 182°
2026-05-05 07:19 45.18889 7.64646 949 ft 24 kts 182°
2026-05-05 07:19 45.18734 7.64637 943 ft 24 kts 182°
2026-05-05 07:19 45.18639 7.64663 941 ft 13 kts 137°
2026-05-05 07:19 45.18621 7.64799 940 ft 12 kts 73°
2026-05-05 07:20 45.18685 7.64876 941 ft 13 kts
2026-05-05 07:20 45.18698 7.64877 942 ft 0 kts
2026-05-05 07:20 45.18774 7.64883 946 ft 38 kts
2026-05-05 07:21 45.19271 7.64912 962 ft 102 kts
2026-05-05 07:21 45.20151 7.64970 984 ft 149 kts
2026-05-05 07:21 45.21224 7.65057 1498 ft 154 kts
2026-05-05 07:21 45.22298 7.65146 2191 ft 155 kts
2026-05-05 07:22 45.23442 7.65212 2570 ft 175 kts
2026-05-05 07:22 45.24725 7.65279 2957 ft 194 kts
2026-05-05 07:22 45.26130 7.65495 3343 ft 215 kts 21°
2026-05-05 07:22 45.27299 7.66929 3768 ft 239 kts 62°
2026-05-05 07:23 45.27610 7.69327 4252 ft 261 kts 96°
2026-05-05 07:23 45.27196 7.71876 5063 ft 269 kts 108°
2026-05-05 07:23 45.26556 7.74389 6178 ft 270 kts 110°
2026-05-05 07:23 45.25897 7.76883 7135 ft 273 kts 111°
2026-05-05 07:24 45.25260 7.79440 8014 ft 277 kts 114°
2026-05-05 07:24 45.24274 7.81794 8858 ft 279 kts 130°
2026-05-05 07:24 45.23082 7.83995 9744 ft 284 kts 130°
2026-05-05 07:24 45.21900 7.86293 10329 ft 299 kts 129°
2026-05-05 07:25 45.20644 7.88778 10631 ft 320 kts 128°
2026-05-05 07:25 45.19341 7.91395 11239 ft 329 kts 128°
2026-05-05 07:25 45.18017 7.94068 11973 ft 334 kts 128°
2026-05-05 07:25 45.16557 7.96630 12718 ft 335 kts 139°
2026-05-05 07:26 45.14739 7.98689 13452 ft 335 kts 152°
2026-05-05 07:26 45.12640 8.00113 14121 ft 335 kts 164°
2026-05-05 07:26 45.10378 8.00929 14765 ft 336 kts 170°
2026-05-05 07:26 45.08088 8.01648 15456 ft 338 kts 170°
2026-05-05 07:27 45.05817 8.02367 16115 ft 340 kts 170°
2026-05-05 07:27 45.03498 8.03109 16797 ft 343 kts 170°
2026-05-05 07:27 45.01162 8.03864 17471 ft 346 kts 170°
2026-05-05 07:27 44.98805 8.04626 18123 ft 349 kts 170°
2026-05-05 07:28 44.96427 8.05389 18701 ft 352 kts 170°
2026-05-05 07:28 44.94029 8.06153 19295 ft 355 kts 170°
2026-05-05 07:28 44.91615 8.06920 19903 ft 357 kts 169°
2026-05-05 07:28 44.89188 8.07695 20511 ft 359 kts 170°
2026-05-05 07:29 44.86744 8.08478 21104 ft 361 kts 170°
2026-05-05 07:29 44.84303 8.09327 21655 ft 365 kts 165°
2026-05-05 07:29 44.81949 8.10746 22194 ft 371 kts 154°
2026-05-05 07:29 44.79757 8.12719 22747 ft 376 kts 150°
2026-05-05 07:30 44.77572 8.14759 23311 ft 378 kts 150°
2026-05-05 07:30 44.73145 8.18851 24253 ft 383 kts 150°
2026-05-05 07:30 44.70906 8.20911 24665 ft 386 kts 150°
2026-05-05 07:31 44.68649 8.22989 25023 ft 390 kts 150°
2026-05-05 07:31 44.66364 8.25090 25391 ft 395 kts 150°
2026-05-05 07:31 44.64059 8.27211 25791 ft 398 kts 150°
2026-05-05 07:31 44.61736 8.29352 26200 ft 401 kts 150°
2026-05-05 07:32 44.59396 8.31510 26612 ft 404 kts 151°
2026-05-05 07:32 44.57039 8.33681 27009 ft 407 kts 151°
2026-05-05 07:32 44.54665 8.35859 27422 ft 409 kts 150°
2026-05-05 07:32 44.52281 8.38047 27834 ft 411 kts 150°
2026-05-05 07:33 44.49882 8.40246 28252 ft 413 kts 150°
2026-05-05 07:33 44.47465 8.42454 28658 ft 416 kts 150°
2026-05-05 07:33 44.45031 8.44677 29060 ft 419 kts 150°
2026-05-05 07:33 44.42580 8.46914 29468 ft 422 kts 151°
2026-05-05 07:34 44.40140 8.49142 29851 ft 426 kts 150°
2026-05-05 07:34 44.37755 8.51740 30238 ft 432 kts 144°
2026-05-05 07:34 44.35484 8.54423 30571 ft 435 kts 144°
2026-05-05 07:34 44.33169 8.57162 30906 ft 438 kts 144°
2026-05-05 07:35 44.30841 8.59919 31251 ft 440 kts 144°
2026-05-05 07:35 44.28499 8.62692 31603 ft 442 kts 144°
2026-05-05 07:35 44.26148 8.65466 31992 ft 443 kts 144°
2026-05-05 07:35 44.23791 8.68237 32423 ft 443 kts 145°
2026-05-05 07:36 44.21436 8.71005 32870 ft 443 kts 145°
2026-05-05 07:36 44.19082 8.73770 33283 ft 443 kts 144°
2026-05-05 07:36 44.16798 8.76447 33710 ft 443 kts 145°
2026-05-05 07:36 44.14441 8.79204 34137 ft 442 kts 145°
2026-05-05 07:37 44.12085 8.81956 34517 ft 442 kts 145°
2026-05-05 07:37 44.09730 8.84707 34880 ft 442 kts 145°
2026-05-05 07:37 44.07375 8.87454 35226 ft 442 kts 146°
2026-05-05 07:37 44.05015 8.90203 35527 ft 443 kts 146°
2026-05-05 07:38 44.02649 8.92955 35844 ft 444 kts 146°
2026-05-05 07:38 44.00282 8.95708 36168 ft 444 kts 146°
2026-05-05 07:38 43.97915 8.98459 36512 ft 444 kts 146°
2026-05-05 07:38 43.95548 9.01207 36835 ft 444 kts 146°
2026-05-05 07:39 43.90812 9.06705 36946 ft 443 kts 146°
2026-05-05 07:39 43.86083 9.12188 36929 ft 444 kts 146°
2026-05-05 07:40 43.81316 9.17679 36944 ft 446 kts 146°
2026-05-05 07:40 43.76536 9.23176 36945 ft 447 kts 146°
2026-05-05 07:41 43.71753 9.28669 36950 ft 447 kts 146°
2026-05-05 07:41 43.66968 9.34165 36958 ft 448 kts 146°
2026-05-05 07:42 43.62178 9.39655 36955 ft 448 kts 146°
2026-05-05 07:42 43.57376 9.45131 36954 ft 448 kts 146°
2026-05-05 07:43 43.52562 9.50610 36939 ft 449 kts 146°
2026-05-05 07:43 43.47741 9.56086 36951 ft 450 kts 146°
2026-05-05 07:44 43.42912 9.61565 36960 ft 450 kts 146°
2026-05-05 07:44 43.38073 9.67042 36942 ft 451 kts 146°
2026-05-05 07:45 43.33222 9.72523 36960 ft 452 kts 146°
2026-05-05 07:45 43.28357 9.78015 36962 ft 453 kts 146°
2026-05-05 07:46 43.23482 9.83493 36958 ft 453 kts 146°
2026-05-05 07:46 43.18595 9.88953 36948 ft 453 kts 147°
2026-05-05 07:47 43.13566 9.94115 36964 ft 451 kts 150°
2026-05-05 07:47 43.08463 9.98993 36973 ft 450 kts 151°
2026-05-05 07:48 43.03322 10.03898 36979 ft 451 kts 150°
2026-05-05 07:48 42.98209 10.08876 36957 ft 451 kts 150°
2026-05-05 07:49 42.93103 10.13881 36969 ft 452 kts 150°
2026-05-05 07:49 42.87984 10.18878 36975 ft 453 kts 150°
2026-05-05 07:50 42.82850 10.23859 36979 ft 453 kts 150°
2026-05-05 07:50 42.77705 10.28831 36994 ft 454 kts 150°
2026-05-05 07:51 42.72549 10.33796 36976 ft 455 kts 151°
2026-05-05 07:51 42.67383 10.38782 36975 ft 455 kts 151°
2026-05-05 07:52 42.62211 10.43763 36988 ft 456 kts 151°
2026-05-05 07:52 42.57029 10.48741 36993 ft 456 kts 151°
2026-05-05 07:53 42.51844 10.53709 36976 ft 457 kts 151°
2026-05-05 07:53 42.47527 10.57843 36980 ft 457 kts 151°
2026-05-05 07:54 42.42327 10.62815 36985 ft 458 kts 151°
2026-05-05 07:54 42.37112 10.67766 36992 ft 458 kts 152°
2026-05-05 07:55 42.31893 10.72722 37016 ft 459 kts 151°
2026-05-05 07:55 42.26670 10.77679 37021 ft 459 kts 152°
2026-05-05 07:56 42.21437 10.82635 37024 ft 459 kts 152°
2026-05-05 07:56 42.16205 10.87581 37034 ft 459 kts 152°
2026-05-05 07:57 42.10968 10.92519 37034 ft 460 kts 152°
2026-05-05 07:57 42.05722 10.97448 37009 ft 460 kts 152°
2026-05-05 07:58 42.00470 11.02381 37033 ft 461 kts 152°
2026-05-05 07:58 41.95208 11.07301 37036 ft 461 kts 152°
2026-05-05 07:59 41.89941 11.12225 37042 ft 461 kts 152°
2026-05-05 07:59 41.84680 11.17142 37028 ft 461 kts 152°
2026-05-05 08:00 41.79415 11.22047 37043 ft 461 kts 152°
2026-05-05 08:00 41.74145 11.26935 37043 ft 461 kts 152°
2026-05-05 08:01 41.68877 11.31822 37039 ft 461 kts 152°
2026-05-05 08:01 41.63601 11.36702 37039 ft 461 kts 152°
2026-05-05 08:02 41.58319 11.41581 37032 ft 462 kts 152°
2026-05-05 08:02 41.53083 11.46575 37047 ft 464 kts 150°
2026-05-05 08:03 41.47925 11.51771 37055 ft 464 kts 149°
2026-05-05 08:03 41.42807 11.56930 37061 ft 464 kts 149°
2026-05-05 08:04 41.37631 11.62052 37056 ft 464 kts 150°
2026-05-05 08:04 41.32436 11.67139 37064 ft 463 kts 150°
2026-05-05 08:05 41.27247 11.72223 37049 ft 464 kts 150°
2026-05-05 08:05 41.22051 11.77320 37060 ft 465 kts 150°
2026-05-05 08:06 41.16846 11.82422 37056 ft 465 kts 150°
2026-05-05 08:06 41.11628 11.87523 37062 ft 467 kts 150°
2026-05-05 08:07 41.06392 11.92626 37063 ft 468 kts 150°
2026-05-05 08:07 41.01139 11.97729 37066 ft 468 kts 150°
2026-05-05 08:08 40.95881 12.02835 37083 ft 469 kts 150°
2026-05-05 08:08 40.90622 12.07936 37062 ft 469 kts 149°
2026-05-05 08:09 40.85361 12.13027 37078 ft 469 kts 149°
2026-05-05 08:09 40.80092 12.18109 37091 ft 469 kts 149°
2026-05-05 08:10 40.74816 12.23182 37098 ft 469 kts 149°
2026-05-05 08:10 40.69538 12.28257 37098 ft 469 kts 149°
2026-05-05 08:11 40.64261 12.33321 37094 ft 469 kts 149°
2026-05-05 08:11 40.59013 12.38344 37106 ft 469 kts 149°
2026-05-05 08:12 40.53735 12.43390 37101 ft 469 kts 149°
2026-05-05 08:12 40.48454 12.48420 37109 ft 469 kts 149°
2026-05-05 08:13 40.43169 12.53434 37102 ft 469 kts 149°
2026-05-05 08:13 40.37892 12.58454 37113 ft 468 kts 149°
2026-05-05 08:14 40.32611 12.63468 37118 ft 468 kts 149°
2026-05-05 08:14 40.27339 12.68464 37125 ft 468 kts 149°
2026-05-05 08:15 40.22053 12.73452 37119 ft 468 kts 149°
2026-05-05 08:15 40.16770 12.78421 37106 ft 468 kts 149°
2026-05-05 08:16 40.11525 12.83357 37119 ft 467 kts 149°
2026-05-05 08:16 40.06252 12.88320 37124 ft 467 kts 149°
2026-05-05 08:17 40.00975 12.93262 37128 ft 467 kts 149°
2026-05-05 08:17 39.95693 12.98186 37128 ft 467 kts 149°
2026-05-05 08:18 39.90412 13.03108 37126 ft 467 kts 149°
2026-05-05 08:18 39.85135 13.08031 37134 ft 467 kts 149°
2026-05-05 08:19 39.79852 13.12950 37134 ft 467 kts 149°
2026-05-05 08:19 39.74564 13.17845 37125 ft 467 kts 149°
2026-05-05 08:20 39.69270 13.22740 37113 ft 467 kts 149°
2026-05-05 08:20 39.63978 13.27644 37123 ft 468 kts 149°
2026-05-05 08:21 39.58682 13.32541 37127 ft 468 kts 149°
2026-05-05 08:21 39.53376 13.37423 37133 ft 468 kts 149°
2026-05-05 08:22 39.48069 13.42292 37137 ft 468 kts 149°
2026-05-05 08:22 39.42764 13.47158 37133 ft 467 kts 149°
2026-05-05 08:23 39.37459 13.52014 37130 ft 467 kts 149°
2026-05-05 08:23 39.32146 13.56871 37130 ft 467 kts 149°
2026-05-05 08:24 39.26831 13.61708 37136 ft 468 kts 149°
2026-05-05 08:24 39.21517 13.66545 37132 ft 467 kts 149°
2026-05-05 08:25 39.16200 13.71374 37137 ft 468 kts 149°
2026-05-05 08:25 39.10880 13.76192 37139 ft 468 kts 149°
2026-05-05 08:26 39.05559 13.81005 37134 ft 468 kts 149°
2026-05-05 08:26 39.00236 13.85827 37137 ft 468 kts 148°
2026-05-05 08:27 38.94915 13.90637 37121 ft 468 kts 148°
2026-05-05 08:27 38.89585 13.95431 37129 ft 468 kts 148°
2026-05-05 08:28 38.84250 14.00211 37137 ft 468 kts 148°
2026-05-05 08:28 38.78950 14.04959 37139 ft 468 kts 148°
2026-05-05 08:29 38.73617 14.09741 37139 ft 468 kts 148°
2026-05-05 08:30 38.65609 14.16891 37139 ft 468 kts 148°
2026-05-05 08:30 38.60272 14.21641 37134 ft 467 kts 148°
2026-05-05 08:31 38.54944 14.26392 37145 ft 467 kts 148°
2026-05-05 08:31 38.49610 14.31123 37145 ft 466 kts 148°
2026-05-05 08:32 38.44284 14.35833 37131 ft 466 kts 148°
2026-05-05 08:32 38.38966 14.40535 37134 ft 465 kts 148°
2026-05-05 08:33 38.33621 14.45164 37138 ft 462 kts 154°
2026-05-05 08:33 38.27871 14.48719 37125 ft 459 kts 159°
2026-05-05 08:33 38.24957 14.50441 36269 ft 468 kts 159°
2026-05-05 08:34 38.21998 14.52189 35757 ft 466 kts 159°
2026-05-05 08:34 38.19085 14.53918 35363 ft 460 kts 159°
2026-05-05 08:34 38.16183 14.55641 34849 ft 460 kts 159°
2026-05-05 08:34 38.13288 14.57359 34346 ft 459 kts 159°
2026-05-05 08:35 38.10399 14.59071 33792 ft 458 kts 159°
2026-05-05 08:35 38.07522 14.60770 33278 ft 455 kts 159°
2026-05-05 08:35 38.04694 14.62433 32763 ft 453 kts 159°
2026-05-05 08:35 38.01810 14.64127 32251 ft 450 kts 158°
2026-05-05 08:36 37.98975 14.65793 31737 ft 448 kts 158°
2026-05-05 08:36 37.96148 14.67417 31231 ft 443 kts 162°
2026-05-05 08:36 37.93230 14.68568 30795 ft 435 kts 171°
2026-05-05 08:36 37.90309 14.69099 30328 ft 427 kts 181°
2026-05-05 08:37 37.87371 14.68957 29817 ft 419 kts 192°
2026-05-05 08:37 37.84578 14.68119 29365 ft 408 kts 203°
2026-05-05 08:37 37.82029 14.66663 28951 ft 397 kts 214°
2026-05-05 08:37 37.79794 14.64689 28552 ft 388 kts 223°
2026-05-05 08:38 37.77720 14.62538 28163 ft 383 kts 223°
2026-05-05 08:38 37.75663 14.60407 27765 ft 380 kts 223°
2026-05-05 08:38 37.73627 14.58302 27362 ft 377 kts 223°
2026-05-05 08:38 37.71607 14.56219 26989 ft 373 kts 223°
2026-05-05 08:39 37.69603 14.54158 26603 ft 370 kts 223°
2026-05-05 08:39 37.67621 14.52118 26219 ft 367 kts 223°
2026-05-05 08:39 37.65625 14.50132 25825 ft 366 kts 217°
2026-05-05 08:39 37.63362 14.48660 25429 ft 368 kts 203°
2026-05-05 08:40 37.60856 14.47917 24973 ft 373 kts 189°
2026-05-05 08:40 37.58255 14.47975 24507 ft 377 kts 174°
2026-05-05 08:40 37.55693 14.48758 24021 ft 380 kts 167°
2026-05-05 08:40 37.53146 14.49669 23511 ft 380 kts 167°
2026-05-05 08:41 37.50604 14.50578 22986 ft 379 kts 167°
2026-05-05 08:41 37.48077 14.51477 22490 ft 376 kts 167°
2026-05-05 08:41 37.45568 14.52369 22003 ft 374 kts 167°
2026-05-05 08:41 37.43072 14.53254 21516 ft 372 kts 167°
2026-05-05 08:42 37.41428 14.53838 21195 ft 371 kts 167°
2026-05-05 08:42 37.38952 14.54718 20709 ft 369 kts 167°
2026-05-05 08:42 37.36485 14.55594 20228 ft 368 kts 167°
2026-05-05 08:42 37.34070 14.56668 19739 ft 370 kts 154°
2026-05-05 08:43 37.32050 14.58680 19255 ft 375 kts 131°
2026-05-05 08:43 37.30758 14.61509 18791 ft 376 kts 109°
2026-05-05 08:43 37.30390 14.64735 18311 ft 375 kts 86°
2026-05-05 08:43 37.30779 14.67956 17808 ft 372 kts 78°
2026-05-05 08:44 37.31246 14.71136 17349 ft 369 kts 78°
2026-05-05 08:44 37.31714 14.74292 16887 ft 366 kts 78°
2026-05-05 08:44 37.32172 14.77428 16431 ft 364 kts 78°
2026-05-05 08:44 37.32617 14.80525 16231 ft 354 kts 79°
2026-05-05 08:45 37.33043 14.83521 16106 ft 344 kts 79°
2026-05-05 08:45 37.33459 14.86434 15972 ft 334 kts 79°
2026-05-05 08:45 37.33864 14.89265 15855 ft 325 kts 79°
2026-05-05 08:45 37.34259 14.92024 15565 ft 316 kts 78°
2026-05-05 08:46 37.34643 14.94729 15048 ft 313 kts 78°
2026-05-05 08:46 37.35024 14.97409 14536 ft 310 kts 78°
2026-05-05 08:46 37.35404 15.00062 14020 ft 307 kts 78°
2026-05-05 08:46 37.35779 15.02690 13461 ft 304 kts 78°
2026-05-05 08:47 37.36147 15.05293 12913 ft 301 kts 78°
2026-05-05 08:47 37.36508 15.07864 12378 ft 297 kts 78°
2026-05-05 08:47 37.36865 15.10404 11865 ft 294 kts 77°
2026-05-05 08:47 37.37219 15.12919 11371 ft 289 kts 77°
2026-05-05 08:48 37.37569 15.15392 10868 ft 286 kts 77°
2026-05-05 08:48 37.37916 15.17856 10583 ft 285 kts 77°
2026-05-05 08:48 37.38256 15.20290 10224 ft 281 kts 77°
2026-05-05 08:48 37.38591 15.22702 9694 ft 279 kts 77°
2026-05-05 08:49 37.38923 15.25086 9197 ft 275 kts 78°
2026-05-05 08:49 37.39252 15.27437 8863 ft 270 kts 78°
2026-05-05 08:49 37.39569 15.29713 8787 ft 259 kts 78°
2026-05-05 08:49 37.39874 15.31903 8649 ft 251 kts 78°
2026-05-05 08:50 37.40175 15.34070 8271 ft 252 kts 78°
2026-05-05 08:50 37.40471 15.36211 7930 ft 251 kts 79°
2026-05-05 08:50 37.40768 15.38362 7540 ft 251 kts 78°
2026-05-05 08:50 37.41066 15.40510 7169 ft 246 kts 79°
2026-05-05 08:51 37.41354 15.42597 6891 ft 237 kts 79°
2026-05-05 08:51 37.41634 15.44634 6699 ft 236 kts 79°
2026-05-05 08:51 37.41917 15.46675 6520 ft 236 kts 79°
2026-05-05 08:51 37.42196 15.48699 6321 ft 234 kts 80°
2026-05-05 08:52 37.42501 15.50705 6135 ft 233 kts 72°
2026-05-05 08:52 37.43361 15.52393 5948 ft 232 kts 38°
2026-05-05 08:52 37.44809 15.53203 5748 ft 230 kts
2026-05-05 08:52 37.46372 15.52925 5550 ft 229 kts 339°
2026-05-05 08:53 37.47913 15.52388 5353 ft 230 kts 348°
2026-05-05 08:53 37.49498 15.52063 5149 ft 231 kts 351°
2026-05-05 08:53 37.51040 15.51572 4950 ft 228 kts 329°
2026-05-05 08:53 37.52111 15.50174 4750 ft 223 kts 291°
2026-05-05 08:54 37.52310 15.48288 4559 ft 219 kts 260°
2026-05-05 08:54 37.52042 15.46394 4379 ft 220 kts 259°
2026-05-05 08:54 37.51774 15.44495 4200 ft 220 kts 259°
2026-05-05 08:54 37.51510 15.42598 4021 ft 219 kts 259°
2026-05-05 08:55 37.51248 15.40713 3843 ft 218 kts 259°
2026-05-05 08:55 37.50934 15.38842 3666 ft 218 kts 250°
2026-05-05 08:55 37.50421 15.37048 3502 ft 217 kts 250°
2026-05-05 08:55 37.49910 15.35257 3340 ft 217 kts 250°
2026-05-05 08:56 37.49404 15.33473 3163 ft 216 kts 250°
2026-05-05 08:56 37.48901 15.31696 2991 ft 213 kts 250°
2026-05-05 08:56 37.48605 15.29908 2831 ft 206 kts 264°
2026-05-05 08:56 37.48469 15.28142 2677 ft 199 kts 264°
2026-05-05 08:57 37.48327 15.26436 2517 ft 193 kts 264°
2026-05-05 08:57 37.48189 15.24776 2380 ft 189 kts 264°
2026-05-05 08:57 37.48055 15.23140 2234 ft 188 kts 264°
2026-05-05 08:57 37.47922 15.21534 2116 ft 180 kts 264°
2026-05-05 08:58 37.47797 15.20027 1966 ft 166 kts 264°
2026-05-05 08:58 37.47683 15.18641 1718 ft 154 kts 263°
2026-05-05 08:58 37.47576 15.17354 1512 ft 144 kts 264°
2026-05-05 08:58 37.47472 15.16143 1339 ft 136 kts 264°
2026-05-05 08:59 37.47373 15.14967 1152 ft 135 kts 264°
2026-05-05 08:59 37.47278 15.13799 984 ft 134 kts 264°
2026-05-05 08:59 37.47181 15.12630 790 ft 135 kts 264°
2026-05-05 08:59 37.47079 15.11466 600 ft 133 kts 263°
2026-05-05 09:00 37.46980 15.10307 405 ft 133 kts 264°
2026-05-05 09:00 37.46879 15.09149 239 ft 132 kts 264°
2026-05-05 09:00 37.46788 15.07997 89 ft 132 kts 264°
2026-05-05 09:00 37.46696 15.06896 30 ft 113 kts 264°
2026-05-05 09:01 37.46633 15.06118 32 ft 65 kts 264°
2026-05-05 09:01 37.46604 15.05761 32 ft 26 kts 264°
2026-05-05 09:01 37.46590 15.05562 35 ft 17 kts 269°
2026-05-05 09:01 37.46664 15.05467 39 ft 16 kts 348°
2026-05-05 09:02 37.46750 15.05526 39 ft 15 kts 68°
2026-05-05 09:02 37.46761 15.05674 38 ft 19 kts 84°
2026-05-05 09:02 37.46775 15.05824 37 ft 16 kts 84°
2026-05-05 09:02 37.46786 15.05957 35 ft 18 kts 84°
2026-05-05 09:03 37.46800 15.06130 34 ft 22 kts 84°
2026-05-05 09:03 37.46816 15.06310 30 ft 15 kts 83°
2026-05-05 09:03 37.46828 15.06456 27 ft 17 kts 84°
2026-05-05 09:03 37.46841 15.06598 28 ft 16 kts 84°
2026-05-05 09:04 37.46850 15.06705 28 ft 8 kts 84°
2026-05-05 09:04 37.46857 15.06800 30 ft 14 kts 84°
2026-05-05 09:04 37.46862 15.06856 25 ft 6 kts 84°
2026-05-05 09:04 37.46901 15.06868 25 ft 7 kts 357°
2026-05-05 09:05 37.46931 15.06865 27 ft 2 kts 354°
2026-05-05 09:05 37.46941 15.06863 25 ft 0 kts 354°